Simultaneous Nadir Overpasses (SNOs) Predictions

Prediction of SNOs between GOES-16 and METOP-B Satellite Orbit:

Table of predicted SNOs for the next 14.0 days since TLE Epoch: 11/2/2024
Index Date Time (GOES-16) GOES-16 Lat,Lon METOP-B Lat,Lon Distance(km) Time Diff (sec)
1 11/02/2024 14:11:03 -0.05, -75.21 -0.37, -73.90 149.81 80
2 11/04/2024 02:29:56 0.05, -75.20 -0.68, -78.48 374.25 80
3 11/05/2024 02:11:51 0.04, -75.20 0.41, -73.47 196.41 80
4 11/06/2024 14:30:37 -0.04, -75.22 0.56, -78.03 319.34 80
5 11/07/2024 14:07:12 -0.03, -75.22 -0.54, -73.02 251.60 80
6 11/09/2024 02:28:45 0.03, -75.21 -0.52, -77.59 271.48 80
7 11/10/2024 02:08:00 0.03, -75.22 0.59, -72.58 299.96 80
8 11/11/2024 14:26:44 -0.02, -75.25 0.39, -77.14 214.38 80
9 11/12/2024 14:03:20 -0.02, -75.26 -0.73, -72.13 357.47 80
10 11/14/2024 02:24:52 0.02, -75.26 -0.28, -76.71 164.26 80
11 11/15/2024 02:01:27 0.02, -75.28 0.81, -71.69 407.93 80
